Regional Weather Roundup
Issued by NWS Green Bay, WI

Home | Current Version | Previous Version | Text Only | Print | Product List | Glossary On
Versions: 1 2 3 4 5 6 7 8 9 10 11 12 13 14 15 16 17 18 19 20 21 22 23 24 25 26 27 28 29 30 31 32 33 34 35 36 37 38 39 40 41 42 43 44 45 46 47 48 49 50
000
ASUS43 KGRB 080200
RWRGRB

NORTH-CENTRAL AND NORTHEAST WISCONSIN REGIONAL WEATHER ROUNDUP
NATIONAL WEATHER SERVICE GREEN BAY WI
900 PM CDT TUE JUL 07 2015

WIZ005-009-010>012-018-019-080300-
NORTH CENTRAL WISCONSIN

CITY           SKY/WX    TMP DP  RH WIND       PRES   REMARKS
IRONWOOD       CLEAR     55  52  88 CALM      30.09R
MANITOWISH WTR NOT AVBL
ARBOR VITAE    NOT AVBL
EAGLE RIVER    NOT AVBL
LAND O LAKES   NOT AVBL
RHINELANDER    CLEAR     56  46  69 N3        30.12S
PHILLIPS       NOT AVBL
ANTIGO         NOT AVBL
TOMAHAWK       NOT AVBL
MERRILL        NOT AVBL
$$

WIZ013-073-080300-
NORTHEAST WISCONSIN

CITY           SKY/WX    TMP DP  RH WIND       PRES   REMARKS
IRON MOUNTAIN  CLEAR     57  48  72 CALM      30.08R
MARINETTE      CLEAR     61  46  59 E3        30.08R
$$

WIZ017-030-035>037-045-080300-
CENTRAL WISCONSIN

CITY           SKY/WX    TMP DP  RH WIND       PRES   REMARKS
MEDFORD        NOT AVBL
WAUSAU         CLEAR     63  46  54 N3        30.09R
MOSINEE        CLEAR     63  46  55 CALM      30.11S
MARSHFIELD     CLEAR     63  47  55 CALM      30.10R
WISC RAPIDS    CLEAR     59  50  72 CALM      30.10S
STEVENS POINT  NOT AVBL
WAUPACA        NOT AVBL
SHAWANO        NOT AVBL
CLINTONVILLE   NOT AVBL
$$

WIZ038-039-048-051-080300-
FOX VALLEY

CITY           SKY/WX    TMP DP  RH WIND       PRES   REMARKS
NWS GREEN BAY  CLEAR     60  52  74 CALM      30.09R
APPLETON       PTCLDY    64  46  52 VRB5      30.09S
OSHKOSH        MOCLDY    63  49  60 N7        30.08S
FOND DU LAC    MOCLDY    60  52  74 SE7       30.10R
$$

WIZ022-050-052-080300-
EAST CENTRAL WISCONSIN

CITY           SKY/WX    TMP DP  RH WIND       PRES   REMARKS
STURGEON BAY   CLEAR     57  46  67 E3        30.11S
MANITOWOC      NOT AVBL
SHEBOYGAN      CLEAR     54  51  90 CALM      30.10S
$$

LMZ563-521-522-541>543-080300-
LAKESHORE

STATION/POSITION TIME  TEMP    WIND        PRES    VSBY  WAVE
                       AIR SEA DIR/SP/G                  HT/PER
                 (UTC) (F)     (DEG/KT/KT) (MB)    (MI)  (FT/S)
SHEBOYGAN LKSHOR 0100   58      CALM  /  1 1019.4R
KEWAUNEE LKSHORE 0100   59        CALM     1018.2R
ALGOMA MARINA    0126             CALM       N/A
NORTHPORT PIER   0100   64      30/  6/ 25 1018.3R
N MID LAKE BUOY  0050   56 52  320/  4/  6 1018.4R         2/ 4
CHAMBERS ISLAND  0100   63      40/  9/ 12 1018.3R
MENOMINEE LKSHOR 0100   65      60/  9/ 11 1019.0R
$$



USA.gov is the U.S. government's official web portal to all federal, state and local government web resources and services.